EA1ZE Weather Reports


time (UTC)temp
F
wind
direction
speed
knots
gust
knots
rain 1hr
in
rain 24hr
in
rain mn
in
humidity
%
barometer
mb
20260503054533 52 180 0.0 0.0 0.00 0.24 0.00 87 1012.5
20260503053039 52 180 0.0 0.0 0.00 0.24 0.00 87 1012.5
20260503051531 52 180 0.0 0.0 0.00 0.24 0.00 86 1012.7
20260503050033 52 180 0.0 0.0 0.00 0.24 0.00 86 1012.7
20260503044601 52 180 0.0 0.0 0.00 0.24 0.00 85 1012.7
20260503043028 52 180 0.0 0.0 0.00 0.24 0.00 85 1012.8
20260503041529 52 180 0.0 0.0 0.00 0.24 0.00 85 1012.7
20260503040028 52 180 0.0 0.0 0.00 0.24 0.00 85 1012.9
20260503034529 52 180 0.0 0.0 0.00 0.24 0.00 86 1012.9
20260503033025 52 180 0.0 0.0 0.00 0.24 0.00 86 1013.0
20260503031523 52 180 0.0 0.0 0.00 0.24 0.00 85 1013.0
20260503030022 52 180 0.0 0.9 0.00 0.24 0.00 86 1013.1
20260503024521 53 180 0.0 3.5 0.00 0.24 0.00 86 1013.3
20260503023020 53 180 1.7 6.1 0.00 0.24 0.00 86 1013.4
20260503021520 53 207 1.7 3.5 0.00 0.24 0.00 84 1013.3
20260503020030 53 207 2.6 5.2 0.00 0.24 0.00 82 1013.3
20260503014515 54 207 2.6 4.3 0.00 0.24 0.00 80 1013.4
20260503013014 53 225 2.6 4.3 0.00 0.24 0.00 79 1013.4
20260503011513 53 227 0.0 0.0 0.00 0.24 0.00 80 1013.5
20260503010012 53 229 0.0 0.0 0.00 0.24 0.00 80 1013.5
20260503004511 53 229 0.0 0.0 0.00 0.24 0.00 79 1013.7
20260503003017 53 229 0.0 0.0 0.00 0.24 0.00 80 1013.9
20260503001511 53 229 0.0 0.9 0.00 0.24 0.00 80 1013.9
20260503000014 53 229 0.9 3.5 0.00 0.24 0.00 80 1014.0
20260502234507 54 231 0.9 3.5 0.00 0.24 0.00 80 1014.0
20260502233004 54 231 0.9 3.5 0.00 0.24 0.00 79 1014.1
20260502231502 55 231 0.0 0.9 0.00 0.24 0.00 78 1014.0
20260502230101 55 231 0.0 3.5 0.00 0.28 0.00 78 1014.0
20260502230000 55 231 0.9 4.3 0.00 0.28 0.00 78 1014.0
20260502224604 56 231 0.9 2.6 0.00 0.28 0.00 79 1014.1
20260502223106 56 231 0.9 5.2 0.00 0.28 0.00 78 1014.0
20260502221601 56 234 1.7 6.1 0.00 0.28 0.00 79 1013.8
20260502214612 56 202 0.9 4.3 0.00 0.28 0.28 81 1013.7
20260502213118 56 180 2.6 6.1 0.00 0.28 0.28 82 1013.8
20260502211556 56 178 2.6 5.2 0.00 0.28 0.28 82 1013.6
20260502210052 57 174 2.6 5.2 0.00 0.28 0.28 82 1013.6
20260502204552 57 189 3.5 5.2 0.00 0.28 0.28 79 1013.4
20260502203111 58 192 2.6 4.3 0.00 0.28 0.28 78 1013.2
20260502201551 59 198 3.5 5.2 0.00 0.28 0.28 75 1013.1
20260502200056 59 200 0.9 2.6 0.00 0.28 0.28 75 1012.9
20260502194552 59 200 1.7 7.0 0.00 0.28 0.28 75 1012.8
20260502193049 60 246 2.6 7.0 0.00 0.28 0.28 73 1013.0
20260502191549 60 275 1.7 9.6 0.01 0.28 0.28 72 1012.8
20260502190048 61 248 1.7 7.0 0.01 0.28 0.28 74 1012.7
20260502184548 61 287 0.9 2.6 0.01 0.28 0.28 75 1012.6
20260502183048 61 287 0.0 0.0 0.00 0.28 0.28 75 1012.5
20260502181547 61 287 0.0 0.0 0.00 0.28 0.28 76 1012.4
20260502163057 61 294 1.7 7.8 0.00 0.27 0.27 70 1012.5
20260502161558 61 309 2.6 8.7 0.02 0.27 0.27 71 1012.4
20260502151541 63 232 2.6 6.1 0.07 0.25 0.25 75 1012.4
20260502130158 57 128 4.3 13.0 0.01 0.18 0.18 81 1013.6
20260502123150 61 190 12.2 24.3 0.01 0.18 0.18 68 1014.3
20260502121635 64 234 10.4 25.2 0.01 0.18 0.18 63 1014.1
20260502120121 63 207 7.8 13.9 0.00 0.17 0.17 67 1013.9
20260502114646 63 200 7.0 16.5 0.00 0.17 0.17 67 1013.7
20260502113135 62 179 5.2 9.6 0.00 0.17 0.17 74 1014.1
20260502111524 59 174 2.6 13.0 0.06 0.17 0.17 79 1014.3
20260502110120 58 215 3.5 7.0 0.08 0.17 0.17 87 1014.8
20260502104547 57 140 4.3 9.6 0.10 0.17 0.17 88 1014.9
20260502103047 56 302 4.3 15.6 0.10 0.17 0.17 87 1015.4
20260502101547 57 211 7.8 14.8 0.06 0.11 0.11 84 1015.9
20260502070040 56 80 0.0 3.5 0.00 0.05 0.05 85 1015.4
20260502064545 56 98 1.7 3.5 0.00 0.05 0.05 86 1015.4